Location: Bastrop State Park
(30.1090°N, 97.2819°W)
Time: 23:52:25
(UTC-05:00)

ISS - Visible Passes

Search period start: 23 July 2017 00:00
Search period end: 02 August 2017 00:00
Orbit: 400 x 408 km, 51.6° (Epoch: 24 July)

Date Brightness Start Highest point End Pass type
(mag) Time Alt. Az. Time Alt. Az. Time Alt. Az.
23 Jul -3.5 05:52:58 10° NW 05:56:13 69° NE 05:59:27 10° SE visible
23 Jul -3.1 20:52:28 10° SSW 20:55:24 32° SE 20:58:21 10° ENE visible
23 Jul -0.7 22:29:46 10° W 22:31:56 16° NW 22:34:05 10° N visible
24 Jul -1.8 05:00:57 10° NNW 05:03:53 30° NE 05:06:48 10° ESE visible
24 Jul -1.8 21:36:34 10° WSW 21:39:30 31° NW 21:42:26 10° NNE visible
25 Jul -0.7 04:09:19 10° N 04:11:26 16° NE 04:13:33 10° ENE visible
25 Jul -3.2 05:44:59 10° WNW 05:47:59 34° SW 05:50:58 10° SSE visible
26 Jul -1.4 04:58:23 15° SE 04:58:23 15° SE 04:58:59 10° SE visible
26 Jul -0.5 21:29:48 10° WNW 21:31:30 13° NW 21:33:13 10° N visible
